Regional Weather Roundup
Issued by NWS Spokane, WA

Home | Current Version | Previous Version | Text Only | Print | Product List | Glossary On
Versions: 1 2 3 4 5 6 7 8 9 10 11 12 13 14 15 16 17 18 19 20 21 22 23 24 25 26 27 28 29 30 31 32 33 34 35 36 37 38 39 40 41 42 43 44 45 46 47 48 49 50
939
NZUS01 KOTX 282300
RWROTX
EASTERN WASHINGTON/NORTHERN IDAHO ROUNDUP
NATIONAL WEATHER SERVICE, SPOKANE WA
400 PM PDT THU JUL 28 2016

Note: "fair" indicated few or no clouds below 12,000 feet with no
significant weather and/or obstructions to visibility.

...NORTHEAST WASHINGTON AND NORTHERN IDAHO PANHANDLE...

CITY           SKY/WX    TMP DP  RH WIND       PRES   REMARKS
SPOKANE INTL   MOSUNNY   94  44  17 N6        30.03F HX  90
SPOKANE DOWNTO MOSUNNY   96  49  20 CALM      30.01F HX  93
COEUR D ALENE  SUNNY     91  50  24 SW5       30.00F
DEER PARK      SUNNY     92  43  18 SW6       30.03F

...SOUTHEAST WASHINGTON AND SOUTHERN IDAHO PANHANDLE...

CITY           SKY/WX    TMP DP  RH WIND       PRES   REMARKS
WALLA WALLA    SUNNY     99  49  18 VRB6      29.94F HX  96
PULLMAN/MOSCOW SUNNY     92  44  19 VRB6      30.05F
LOWELL           N/A     97  57  26 CALM      29.94F HX  96

...COLUMBIA BASIN...

CITY           SKY/WX    TMP DP  RH WIND       PRES   REMARKS
EPHRATA        SUNNY     99  47  17 SW10G17   29.96F HX  95
MOSES LAKE     SUNNY     99  45  15 SW9       29.97F HX  95
TRI CITIES     SUNNY    101  50  18 NW8       29.91F HX  98
HERMISTON      SUNNY    100  46  16 VRB3      29.91F HX  96
PENDLETON      SUNNY     96  47  18 MISG      29.96F HX  92

...EAST SLOPES CASCADES...

CITY           SKY/WX    TMP DP  RH WIND       PRES   REMARKS
THE DALLES     SUNNY    101  45  15 N7        29.88F HX  97
YAKIMA         SUNNY    101  45  15 VRB3      29.95F HX  97
ELLENSBURG     SUNNY     99  47  17 E6        30.00F HX  95
WENATCHEE      SUNNY     97  48  18 VRB3      29.95F HX  93
OMAK           MOSUNNY   97  43  15 SE5       29.96F HX  93

...SOUTHERN BRITISH COLUMBIA...

CITY           SKY/WX    TMP DP  RH WIND       PRES   REMARKS

...WESTERN MONTANA...

CITY           SKY/WX    TMP DP  RH WIND       PRES   REMARKS
MISSOULA       SUNNY     90  46  21 NE9       30.06F

...NEIGHBORING CITIES...

CITY           SKY/WX    TMP DP  RH WIND       PRES   REMARKS
SEATTLE        SUNNY     86  59  39 N10       30.07F



USA.gov is the U.S. government's official web portal to all federal, state and local government web resources and services.